Retour au catalogue

SL-16 DEB

ActifLEO
NORAD 39721·DEBRIS·🇷🇺 Russia

Lancé Dec 25, 1992 depuis Baikonur Cosmodrome

Loading…

Prochains Passages (prochaines 24 heures)

TLE

VieillissantSource: Space-Track

Époque: Sep 12, 2026, 10:07 UTC

1 39721U 92093KM  26255.42173137  .00000142  00000-0  12650-3 0  9997
2 39721  71.1911  45.5591 0125532  36.7282 324.2352 13.96204234631565

Suivez SL-16 DEB en temps réel avec AllMySat

Download on the App Store